contact:dominique.lefevre@mio.osupytheas.fr, maurice.libes@osupytheas.fr, didier.mallarino@osupytheas.fr
Project:EMSO http://www.emso-fr.org/EMSO-France
Depth: 2436.0 m
Title:EMSO Ligure Ouest : Data MII capteur MICROCAT
DateTime_Computer,Latitude,Longitude,Temperature,Conductivity,Pressure,DateTime_Instrument
DateTime_Computer,Latitude,Longitude,degC,S m-1,dbar,DateTime_Instrument
2022-08-09T00:02:55Z,42.805,6.029,13.3020,4.60063,2470.591,2022-8-09T02:04:43Z
2022-08-09T00:05:58Z,42.805,6.029,13.3055,4.60049,2470.614,2022-8-09T02:07:46Z
2022-08-09T00:09:01Z,42.805,6.029,13.3068,4.60073,2470.6,2022-8-09T02:10:49Z
2022-08-09T00:12:04Z,42.805,6.029,13.3009,4.60053,2470.577,2022-8-09T02:13:53Z
2022-08-09T00:15:07Z,42.805,6.029,13.3022,4.60047,2470.591,2022-8-09T02:16:56Z
2022-08-09T00:18:10Z,42.805,6.029,13.3010,4.60064,2470.624,2022-8-09T02:19:59Z
2022-08-09T00:21:13Z,42.805,6.029,13.3031,4.60049,2470.6,2022-8-09T02:23:02Z
2022-08-09T00:24:16Z,42.805,6.029,13.3003,4.60047,2470.6,2022-8-09T02:26:05Z
2022-08-09T00:27:20Z,42.805,6.029,13.3008,4.60051,2470.6,2022-8-09T02:29:08Z
2022-08-09T00:30:23Z,42.805,6.029,13.3013,4.60051,2470.6,2022-8-09T02:32:11Z
2022-08-09T00:33:26Z,42.805,6.029,13.3001,4.60052,2470.614,2022-8-09T02:35:14Z
2022-08-09T00:36:29Z,42.805,6.029,13.3005,4.60045,2470.624,2022-8-09T02:38:18Z
2022-08-09T00:39:32Z,42.805,6.029,13.3026,4.60070,2470.624,2022-8-09T02:41:21Z
2022-08-09T00:42:35Z,42.805,6.029,13.3041,4.60074,2470.614,2022-8-09T02:44:24Z
2022-08-09T00:45:38Z,42.805,6.029,13.3056,4.60058,2470.6,2022-8-09T02:47:27Z
2022-08-09T00:48:41Z,42.805,6.029,13.3036,4.60078,2470.6,2022-8-09T02:50:30Z
2022-08-09T00:51:44Z,42.805,6.029,13.3063,4.60072,2470.637,2022-8-09T02:53:33Z
2022-08-09T00:54:48Z,42.805,6.029,13.3046,4.60082,2470.637,2022-8-09T02:56:36Z
2022-08-09T00:57:51Z,42.805,6.029,13.3025,4.60074,2470.614,2022-8-09T02:59:39Z
2022-08-09T01:00:54Z,42.805,6.029,13.3006,4.60085,2470.591,2022-8-09T03:02:42Z
2022-08-09T01:03:57Z,42.805,6.029,13.3006,4.60053,2470.614,2022-8-09T03:05:46Z
2022-08-09T01:07:00Z,42.805,6.029,13.3007,4.60057,2470.637,2022-8-09T03:08:49Z
2022-08-09T01:10:03Z,42.805,6.029,13.3007,4.60046,2470.61,2022-8-09T03:11:52Z
2022-08-09T01:13:06Z,42.805,6.029,13.3004,4.60049,2470.637,2022-8-09T03:14:55Z
2022-08-09T01:16:09Z,42.805,6.029,13.3004,4.60041,2470.624,2022-8-09T03:17:58Z
2022-08-09T01:19:13Z,42.805,6.029,13.3006,4.60044,2470.614,2022-8-09T03:21:01Z
2022-08-09T01:22:16Z,42.805,6.029,13.3004,4.60045,2470.637,2022-8-09T03:24:04Z
2022-08-09T01:25:19Z,42.805,6.029,13.3000,4.60044,2470.646,2022-8-09T03:27:07Z
2022-08-09T01:28:22Z,42.805,6.029,13.3009,4.60046,2470.646,2022-8-09T03:30:11Z
2022-08-09T01:31:25Z,42.805,6.029,13.3006,4.60044,2470.6,2022-8-09T03:33:14Z
2022-08-09T01:34:28Z,42.805,6.029,13.3004,4.60051,2470.633,2022-8-09T03:36:17Z
2022-08-09T01:37:31Z,42.805,6.029,13.3004,4.60044,2470.637,2022-8-09T03:39:20Z
2022-08-09T01:40:34Z,42.805,6.029,13.3004,4.60052,2470.646,2022-8-09T03:42:23Z
2022-08-09T01:43:37Z,42.805,6.029,13.3001,4.60046,2470.646,2022-8-09T03:45:26Z
2022-08-09T01:46:41Z,42.805,6.029,13.3004,4.60049,2470.684,2022-8-09T03:48:29Z
2022-08-09T01:49:44Z,42.805,6.029,13.3003,4.60049,2470.646,2022-8-09T03:51:32Z
2022-08-09T01:52:47Z,42.805,6.029,13.3003,4.60046,2470.646,2022-8-09T03:54:35Z
2022-08-09T01:55:50Z,42.805,6.029,13.3008,4.60044,2470.661,2022-8-09T03:57:39Z
2022-08-09T01:58:53Z,42.805,6.029,13.3006,4.60047,2470.67,2022-8-09T04:00:42Z
2022-08-09T02:01:56Z,42.805,6.029,13.3003,4.60042,2470.624,2022-8-09T04:03:45Z
2022-08-09T02:04:59Z,42.805,6.029,13.3004,4.60044,2470.67,2022-8-09T04:06:48Z
2022-08-09T02:08:02Z,42.805,6.029,13.3004,4.60046,2470.661,2022-8-09T04:09:51Z
2022-08-09T02:11:05Z,42.805,6.029,13.3006,4.60043,2470.661,2022-8-09T04:12:54Z
2022-08-09T02:14:09Z,42.805,6.029,13.3009,4.60046,2470.661,2022-8-09T04:15:57Z
2022-08-09T02:17:12Z,42.805,6.029,13.3008,4.60045,2470.6,2022-8-09T04:19:00Z
2022-08-09T02:20:15Z,42.805,6.029,13.3004,4.60042,2470.661,2022-8-09T04:22:03Z
2022-08-09T02:23:18Z,42.805,6.029,13.3005,4.60048,2470.646,2022-8-09T04:25:07Z
2022-08-09T02:26:21Z,42.805,6.029,13.3003,4.60045,2470.693,2022-8-09T04:28:10Z
2022-08-09T02:29:24Z,42.805,6.029,13.3004,4.60049,2470.661,2022-8-09T04:31:13Z
2022-08-09T02:32:27Z,42.805,6.029,13.3009,4.60043,2470.646,2022-8-09T04:34:16Z
2022-08-09T02:35:30Z,42.805,6.029,13.3006,4.60046,2470.624,2022-8-09T04:37:19Z
2022-08-09T02:38:34Z,42.805,6.029,13.3004,4.60043,2470.646,2022-8-09T04:40:22Z
2022-08-09T02:41:37Z,42.805,6.029,13.3004,4.60042,2470.67,2022-8-09T04:43:25Z
2022-08-09T02:44:40Z,42.805,6.029,13.3001,4.60046,2470.684,2022-8-09T04:46:28Z
2022-08-09T02:47:43Z,42.805,6.029,13.3004,4.60046,2470.67,2022-8-09T04:49:32Z
2022-08-09T02:50:46Z,42.805,6.029,13.3003,4.60043,2470.637,2022-8-09T04:52:35Z
2022-08-09T02:53:49Z,42.805,6.029,13.3002,4.60044,2470.693,2022-8-09T04:55:38Z
2022-08-09T02:56:52Z,42.805,6.029,13.3003,4.60045,2470.67,2022-8-09T04:58:41Z
2022-08-09T02:59:55Z,42.805,6.029,13.3006,4.60043,2470.646,2022-8-09T05:01:44Z
2022-08-09T03:02:58Z,42.805,6.029,13.3002,4.60052,2470.707,2022-8-09T05:04:47Z
2022-08-09T03:06:02Z,42.805,6.029,13.3005,4.60045,2470.67,2022-8-09T05:07:50Z
2022-08-09T03:09:05Z,42.805,6.029,13.3004,4.60044,2470.661,2022-8-09T05:10:53Z
2022-08-09T03:12:08Z,42.805,6.029,13.3006,4.60043,2470.693,2022-8-09T05:13:56Z
2022-08-09T03:15:11Z,42.805,6.029,13.3004,4.60044,2470.646,2022-8-09T05:17:00Z
2022-08-09T03:18:14Z,42.805,6.029,13.3006,4.60045,2470.67,2022-8-09T05:20:03Z
2022-08-09T03:21:17Z,42.805,6.029,13.3005,4.60044,2470.684,2022-8-09T05:23:06Z
2022-08-09T03:24:20Z,42.805,6.029,13.3001,4.60046,2470.684,2022-8-09T05:26:09Z
2022-08-09T03:27:23Z,42.805,6.029,13.3006,4.60044,2470.661,2022-8-09T05:29:12Z
2022-08-09T03:30:26Z,42.805,6.029,13.3004,4.60047,2470.67,2022-8-09T05:32:15Z
2022-08-09T03:33:30Z,42.805,6.029,13.3008,4.60046,2470.67,2022-8-09T05:35:18Z
2022-08-09T03:36:33Z,42.805,6.029,13.3000,4.60045,2470.67,2022-8-09T05:38:21Z
2022-08-09T03:39:36Z,42.805,6.029,13.3003,4.60050,2470.684,2022-8-09T05:41:25Z
2022-08-09T03:42:39Z,42.805,6.029,13.3006,4.60050,2470.67,2022-8-09T05:44:28Z
2022-08-09T03:45:42Z,42.805,6.029,13.3004,4.60045,2470.646,2022-8-09T05:47:31Z
2022-08-09T03:48:45Z,42.805,6.029,13.3015,4.60069,2470.67,2022-8-09T05:50:34Z
2022-08-09T03:51:48Z,42.805,6.029,13.3006,4.60063,2470.684,2022-8-09T05:53:37Z
2022-08-09T03:54:51Z,42.805,6.029,13.3005,4.60057,2470.693,2022-8-09T05:56:40Z
2022-08-09T03:57:55Z,42.805,6.029,13.3018,4.60051,2470.646,2022-8-09T05:59:43Z
2022-08-09T04:00:58Z,42.805,6.029,13.3006,4.60058,2470.61,2022-8-09T06:02:46Z
2022-08-09T04:04:01Z,42.805,6.029,13.3006,4.60055,2470.707,2022-8-09T06:05:49Z
2022-08-09T04:07:04Z,42.805,6.029,13.3003,4.60056,2470.646,2022-8-09T06:08:53Z
2022-08-09T04:10:07Z,42.805,6.029,13.3005,4.60054,2470.67,2022-8-09T06:11:56Z
2022-08-09T04:13:10Z,42.805,6.029,13.3004,4.60060,2470.707,2022-8-09T06:14:59Z
2022-08-09T04:16:13Z,42.805,6.029,13.3008,4.60058,2470.67,2022-8-09T06:18:02Z
2022-08-09T04:19:16Z,42.805,6.029,13.3006,4.60057,2470.707,2022-8-09T06:21:05Z
2022-08-09T04:22:19Z,42.805,6.029,13.3008,4.60058,2470.67,2022-8-09T06:24:08Z
2022-08-09T04:25:23Z,42.805,6.029,13.3009,4.60064,2470.684,2022-8-09T06:27:11Z
2022-08-09T04:28:26Z,42.805,6.029,13.3009,4.60061,2470.67,2022-8-09T06:30:14Z
2022-08-09T04:31:29Z,42.805,6.029,13.3004,4.60051,2470.684,2022-8-09T06:33:17Z
2022-08-09T04:34:32Z,42.805,6.029,13.3019,4.60066,2470.661,2022-8-09T06:36:21Z
2022-08-09T04:37:35Z,42.805,6.029,13.3049,4.60066,2470.646,2022-8-09T06:39:24Z
2022-08-09T04:40:38Z,42.805,6.029,13.3042,4.60072,2470.73,2022-8-09T06:42:27Z
2022-08-09T04:43:41Z,42.805,6.029,13.3031,4.60080,2470.67,2022-8-09T06:45:30Z
2022-08-09T04:46:44Z,42.805,6.029,13.3040,4.60114,2470.693,2022-8-09T06:48:33Z
2022-08-09T04:49:48Z,42.805,6.029,13.3043,4.60114,2470.684,2022-8-09T06:51:36Z
2022-08-09T04:52:51Z,42.805,6.029,13.3055,4.60122,2470.693,2022-8-09T06:54:39Z
2022-08-09T04:55:54Z,42.805,6.029,13.3024,4.60077,2470.67,2022-8-09T06:57:42Z
2022-08-09T04:58:57Z,42.805,6.029,13.3048,4.60106,2470.684,2022-8-09T07:00:46Z
2022-08-09T05:02:00Z,42.805,6.029,13.3031,4.60108,2470.693,2022-8-09T07:03:49Z
2022-08-09T05:05:03Z,42.805,6.029,13.3025,4.60114,2470.684,2022-8-09T07:06:52Z
2022-08-09T05:08:06Z,42.805,6.029,13.3024,4.60116,2470.661,2022-8-09T07:09:55Z
2022-08-09T05:11:09Z,42.805,6.029,13.3015,4.60096,2470.646,2022-8-09T07:12:58Z
2022-08-09T05:14:12Z,42.805,6.029,13.3029,4.60125,2470.661,2022-8-09T07:16:01Z
2022-08-09T05:17:16Z,42.805,6.029,13.3031,4.60120,2470.693,2022-8-09T07:19:04Z
2022-08-09T05:20:19Z,42.805,6.029,13.3026,4.60092,2470.684,2022-8-09T07:22:07Z
2022-08-09T05:23:22Z,42.805,6.029,13.3026,4.60114,2470.693,2022-8-09T07:25:10Z
2022-08-09T05:26:25Z,42.805,6.029,13.3038,4.60111,2470.646,2022-8-09T07:28:14Z
2022-08-09T05:29:28Z,42.805,6.029,13.3034,4.60146,2470.67,2022-8-09T07:31:17Z
2022-08-09T05:32:31Z,42.805,6.029,13.3020,4.60104,2470.684,2022-8-09T07:34:20Z
2022-08-09T05:35:34Z,42.805,6.029,13.3038,4.60118,2470.67,2022-8-09T07:37:23Z
2022-08-09T05:38:37Z,42.805,6.029,13.3032,4.60106,2470.707,2022-8-09T07:40:26Z
2022-08-09T05:41:40Z,42.805,6.029,13.3038,4.60121,2470.67,2022-8-09T07:43:29Z
2022-08-09T05:44:44Z,42.805,6.029,13.3041,4.60110,2470.661,2022-8-09T07:46:32Z
2022-08-09T05:47:47Z,42.805,6.029,13.3037,4.60128,2470.693,2022-8-09T07:49:35Z
2022-08-09T05:50:50Z,42.805,6.029,13.3031,4.60125,2470.707,2022-8-09T07:52:39Z
2022-08-09T05:53:53Z,42.805,6.029,13.3039,4.60106,2470.693,2022-8-09T07:55:42Z
2022-08-09T05:56:56Z,42.805,6.029,13.3045,4.60117,2470.646,2022-8-09T07:58:45Z
2022-08-09T05:59:59Z,42.805,6.029,13.3059,4.60124,2470.684,2022-8-09T08:01:48Z
2022-08-09T06:03:02Z,42.805,6.029,13.3043,4.60110,2470.661,2022-8-09T08:04:51Z
2022-08-09T06:06:05Z,42.805,6.029,13.3024,4.60119,2470.646,2022-8-09T08:07:54Z
2022-08-09T06:09:09Z,42.805,6.029,13.3046,4.60125,2470.684,2022-8-09T08:10:57Z
2022-08-09T06:12:12Z,42.805,6.029,13.3036,4.60127,2470.707,2022-8-09T08:14:00Z
2022-08-09T06:15:15Z,42.805,6.029,13.3036,4.60152,2470.624,2022-8-09T08:17:03Z
2022-08-09T06:18:18Z,42.805,6.029,13.3033,4.60150,2470.693,2022-8-09T08:20:07Z
2022-08-09T06:21:21Z,42.805,6.029,13.3026,4.60144,2470.67,2022-8-09T08:23:10Z
2022-08-09T06:24:24Z,42.805,6.029,13.3028,4.60135,2470.693,2022-8-09T08:26:13Z
2022-08-09T06:27:27Z,42.805,6.029,13.3029,4.60130,2470.646,2022-8-09T08:29:16Z
2022-08-09T06:30:30Z,42.805,6.029,13.3031,4.60091,2470.67,2022-8-09T08:32:19Z
2022-08-09T06:33:33Z,42.805,6.029,13.3034,4.60098,2470.661,2022-8-09T08:35:22Z
2022-08-09T06:36:37Z,42.805,6.029,13.3029,4.60127,2470.67,2022-8-09T08:38:25Z
2022-08-09T06:39:40Z,42.805,6.029,13.3026,4.60125,2470.67,2022-8-09T08:41:28Z
2022-08-09T06:42:43Z,42.805,6.029,13.3036,4.60104,2470.637,2022-8-09T08:44:32Z
2022-08-09T06:45:46Z,42.805,6.029,13.3039,4.60096,2470.646,2022-8-09T08:47:35Z
2022-08-09T06:48:49Z,42.805,6.029,13.3036,4.60091,2470.646,2022-8-09T08:50:38Z
2022-08-09T06:51:52Z,42.805,6.029,13.3046,4.60097,2470.637,2022-8-09T08:53:41Z
2022-08-09T06:54:55Z,42.805,6.029,13.3043,4.60102,2470.646,2022-8-09T08:56:44Z
2022-08-09T06:57:58Z,42.805,6.029,13.3041,4.60091,2470.637,2022-8-09T08:59:47Z
2022-08-09T07:01:02Z,42.805,6.029,13.3028,4.60103,2470.67,2022-8-09T09:02:50Z
2022-08-09T07:04:05Z,42.805,6.029,13.3039,4.60089,2470.646,2022-8-09T09:05:53Z
2022-08-09T07:07:08Z,42.805,6.029,13.3031,4.60087,2470.624,2022-8-09T09:08:56Z
2022-08-09T07:10:11Z,42.805,6.029,13.3037,4.60081,2470.624,2022-8-09T09:12:00Z
2022-08-09T07:13:14Z,42.805,6.029,13.3034,4.60100,2470.646,2022-8-09T09:15:03Z
2022-08-09T07:16:17Z,42.805,6.029,13.3056,4.60097,2470.646,2022-8-09T09:18:06Z
2022-08-09T07:19:20Z,42.805,6.029,13.3054,4.60124,2470.637,2022-8-09T09:21:09Z
2022-08-09T07:22:23Z,42.805,6.029,13.3051,4.60077,2470.637,2022-8-09T09:24:12Z
2022-08-09T07:25:26Z,42.805,6.029,13.3042,4.60064,2470.637,2022-8-09T09:27:15Z
2022-08-09T07:28:30Z,42.805,6.029,13.3054,4.60097,2470.637,2022-8-09T09:30:18Z
2022-08-09T07:31:33Z,42.805,6.029,13.3037,4.60128,2470.661,2022-8-09T09:33:21Z
2022-08-09T07:34:36Z,42.805,6.029,13.3056,4.60117,2470.637,2022-8-09T09:36:24Z
2022-08-09T07:37:39Z,42.805,6.029,13.3068,4.60094,2470.637,2022-8-09T09:39:28Z
2022-08-09T07:40:42Z,42.805,6.029,13.3070,4.60089,2470.614,2022-8-09T09:42:31Z
2022-08-09T07:43:45Z,42.805,6.029,13.3056,4.60098,2470.614,2022-8-09T09:45:34Z
2022-08-09T07:46:48Z,42.805,6.029,13.3043,4.60128,2470.591,2022-8-09T09:48:37Z
2022-08-09T07:49:51Z,42.805,6.029,13.3085,4.60099,2470.614,2022-8-09T09:51:40Z
2022-08-09T07:52:54Z,42.805,6.029,13.3078,4.60080,2470.624,2022-8-09T09:54:43Z
2022-08-09T07:55:58Z,42.805,6.029,13.3019,4.60067,2470.591,2022-8-09T09:57:46Z
2022-08-09T07:59:01Z,42.805,6.029,13.3021,4.60075,2470.6,2022-8-09T10:00:49Z
2022-08-09T08:02:04Z,42.805,6.029,13.3013,4.60071,2470.6,2022-8-09T10:03:53Z
2022-08-09T08:05:07Z,42.805,6.029,13.3006,4.60068,2470.637,2022-8-09T10:06:56Z
2022-08-09T08:08:10Z,42.805,6.029,13.3006,4.60143,2470.614,2022-8-09T10:09:59Z
2022-08-09T08:11:13Z,42.805,6.029,13.3007,4.60084,2470.6,2022-8-09T10:13:02Z
2022-08-09T08:14:16Z,42.805,6.029,13.3005,4.60079,2470.614,2022-8-09T10:16:05Z
2022-08-09T08:17:19Z,42.805,6.029,13.3007,4.60049,2470.614,2022-8-09T10:19:08Z
2022-08-09T08:20:23Z,42.805,6.029,13.3002,4.60046,2470.624,2022-8-09T10:22:11Z
2022-08-09T08:23:26Z,42.805,6.029,13.3006,4.60046,2470.624,2022-8-09T10:25:14Z
2022-08-09T08:26:29Z,42.805,6.029,13.3007,4.60046,2470.614,2022-8-09T10:28:17Z
2022-08-09T08:29:32Z,42.805,6.029,13.3009,4.60045,2470.6,2022-8-09T10:31:21Z
2022-08-09T08:32:35Z,42.805,6.029,13.3006,4.60044,2470.624,2022-8-09T10:34:24Z
2022-08-09T08:35:38Z,42.805,6.029,13.3003,4.60052,2470.577,2022-8-09T10:37:27Z
2022-08-09T08:38:41Z,42.805,6.029,13.3010,4.60052,2470.614,2022-8-09T10:40:30Z
2022-08-09T08:41:44Z,42.805,6.029,13.3004,4.60049,2470.567,2022-8-09T10:43:33Z
2022-08-09T08:44:48Z,42.805,6.029,13.3004,4.60051,2470.6,2022-8-09T10:46:36Z
2022-08-09T08:47:51Z,42.805,6.029,13.3004,4.60057,2470.6,2022-8-09T10:49:39Z
2022-08-09T08:50:54Z,42.805,6.029,13.3006,4.60056,2470.591,2022-8-09T10:52:42Z
2022-08-09T08:53:57Z,42.805,6.029,13.3010,4.60049,2470.6,2022-8-09T10:55:46Z
2022-08-09T08:57:00Z,42.805,6.029,13.3005,4.60057,2470.577,2022-8-09T10:58:49Z
2022-08-09T09:00:03Z,42.805,6.029,13.3006,4.60047,2470.577,2022-8-09T11:01:52Z
2022-08-09T09:03:06Z,42.805,6.029,13.3006,4.60046,2470.614,2022-8-09T11:04:55Z
2022-08-09T09:06:09Z,42.805,6.029,13.3007,4.60046,2470.591,2022-8-09T11:07:58Z
2022-08-09T09:09:13Z,42.805,6.029,13.3003,4.60051,2470.553,2022-8-09T11:11:01Z
2022-08-09T09:12:16Z,42.805,6.029,13.3006,4.60050,2470.614,2022-8-09T11:14:04Z
2022-08-09T09:15:19Z,42.805,6.029,13.3010,4.60044,2470.577,2022-8-09T11:17:07Z
2022-08-09T09:18:22Z,42.805,6.029,13.3009,4.60047,2470.614,2022-8-09T11:20:11Z
2022-08-09T09:21:25Z,42.805,6.029,13.3009,4.60046,2470.553,2022-8-09T11:23:14Z
2022-08-09T09:24:28Z,42.805,6.029,13.3010,4.60049,2470.577,2022-8-09T11:26:17Z
2022-08-09T09:27:31Z,42.805,6.029,13.3006,4.60046,2470.577,2022-8-09T11:29:20Z
2022-08-09T09:30:34Z,42.805,6.029,13.3006,4.60043,2470.577,2022-8-09T11:32:23Z
2022-08-09T09:33:38Z,42.805,6.029,13.3011,4.60046,2470.577,2022-8-09T11:35:26Z
2022-08-09T09:36:41Z,42.805,6.029,13.3006,4.60043,2470.544,2022-8-09T11:38:29Z
2022-08-09T09:39:44Z,42.805,6.029,13.3006,4.60043,2470.553,2022-8-09T11:41:32Z
2022-08-09T09:42:47Z,42.805,6.029,13.3006,4.60044,2470.53,2022-8-09T11:44:36Z
2022-08-09T09:45:50Z,42.805,6.029,13.3007,4.60046,2470.553,2022-8-09T11:47:39Z
2022-08-09T09:48:53Z,42.805,6.029,13.3008,4.60045,2470.553,2022-8-09T11:50:42Z
2022-08-09T09:51:56Z,42.805,6.029,13.3009,4.60044,2470.544,2022-8-09T11:53:45Z
2022-08-09T09:54:59Z,42.805,6.029,13.3004,4.60044,2470.553,2022-8-09T11:56:48Z
2022-08-09T09:58:02Z,42.805,6.029,13.3009,4.60044,2470.553,2022-8-09T11:59:51Z
2022-08-09T10:01:06Z,42.805,6.029,13.3011,4.60044,2470.544,2022-8-09T12:02:54Z
2022-08-09T10:04:09Z,42.805,6.029,13.3006,4.60056,2470.553,2022-8-09T12:05:57Z
2022-08-09T10:07:12Z,42.805,6.029,13.3004,4.60045,2470.553,2022-8-09T12:09:01Z
2022-08-09T10:10:15Z,42.805,6.029,13.3009,4.60044,2470.553,2022-8-09T12:12:04Z
2022-08-09T10:13:18Z,42.805,6.029,13.3006,4.60044,2470.567,2022-8-09T12:15:07Z
2022-08-09T10:16:21Z,42.805,6.029,13.3005,4.60044,2470.53,2022-8-09T12:18:10Z
2022-08-09T10:19:24Z,42.805,6.029,13.3008,4.60044,2470.567,2022-8-09T12:21:13Z
2022-08-09T10:22:27Z,42.805,6.029,13.3007,4.60044,2470.567,2022-8-09T12:24:16Z
2022-08-09T10:25:31Z,42.805,6.029,13.3007,4.60047,2470.567,2022-8-09T12:27:19Z
2022-08-09T10:28:34Z,42.805,6.029,13.3006,4.60043,2470.53,2022-8-09T12:30:22Z
2022-08-09T10:31:37Z,42.805,6.029,13.3006,4.60044,2470.553,2022-8-09T12:33:26Z
2022-08-09T10:34:40Z,42.805,6.029,13.3006,4.60046,2470.544,2022-8-09T12:36:29Z
2022-08-09T10:37:43Z,42.805,6.029,13.3009,4.60049,2470.544,2022-8-09T12:39:32Z
2022-08-09T10:40:46Z,42.805,6.029,13.3007,4.60044,2470.53,2022-8-09T12:42:35Z
2022-08-09T10:43:49Z,42.805,6.029,13.3008,4.60043,2470.567,2022-8-09T12:45:38Z
2022-08-09T10:46:52Z,42.805,6.029,13.3008,4.60044,2470.553,2022-8-09T12:48:41Z
2022-08-09T10:49:56Z,42.805,6.029,13.3006,4.60042,2470.544,2022-8-09T12:51:44Z
2022-08-09T10:52:59Z,42.805,6.029,13.3004,4.60042,2470.544,2022-8-09T12:54:47Z
2022-08-09T10:56:02Z,42.805,6.029,13.3007,4.60042,2470.53,2022-8-09T12:57:51Z
2022-08-09T10:59:05Z,42.805,6.029,13.3007,4.60042,2470.553,2022-8-09T13:00:54Z
2022-08-09T11:02:08Z,42.805,6.029,13.3008,4.60043,2470.577,2022-8-09T13:03:57Z
2022-08-09T11:05:11Z,42.805,6.029,13.3010,4.60043,2470.553,2022-8-09T13:07:00Z
2022-08-09T11:08:14Z,42.805,6.029,13.3009,4.60044,2470.53,2022-8-09T13:10:03Z
2022-08-09T11:11:17Z,42.805,6.029,13.3010,4.60043,2470.544,2022-8-09T13:13:06Z
2022-08-09T11:14:20Z,42.805,6.029,13.3010,4.60044,2470.553,2022-8-09T13:16:09Z
2022-08-09T11:17:24Z,42.805,6.029,13.3008,4.60044,2470.553,2022-8-09T13:19:12Z
2022-08-09T11:20:27Z,42.805,6.029,13.3004,4.60044,2470.544,2022-8-09T13:22:15Z
2022-08-09T11:23:30Z,42.805,6.029,13.3003,4.60046,2470.507,2022-8-09T13:25:19Z
2022-08-09T11:26:33Z,42.805,6.029,13.3008,4.60046,2470.544,2022-8-09T13:28:22Z
2022-08-09T11:29:36Z,42.805,6.029,13.3007,4.60046,2470.567,2022-8-09T13:31:25Z
2022-08-09T11:32:39Z,42.805,6.029,13.3009,4.60043,2470.52,2022-8-09T13:34:28Z
2022-08-09T11:35:42Z,42.805,6.029,13.3006,4.60044,2470.53,2022-8-09T13:37:31Z
2022-08-09T11:38:45Z,42.805,6.029,13.3009,4.60045,2470.553,2022-8-09T13:40:34Z
2022-08-09T11:41:49Z,42.805,6.029,13.3007,4.60044,2470.553,2022-8-09T13:43:37Z
2022-08-09T11:44:52Z,42.805,6.029,13.3005,4.60043,2470.544,2022-8-09T13:46:40Z
2022-08-09T11:47:55Z,42.805,6.029,13.3007,4.60043,2470.544,2022-8-09T13:49:44Z
2022-08-09T11:50:58Z,42.805,6.029,13.3009,4.60043,2470.539,2022-8-09T13:52:47Z
2022-08-09T11:54:01Z,42.805,6.029,13.3005,4.60044,2470.553,2022-8-09T13:55:50Z
2022-08-09T11:57:04Z,42.805,6.029,13.3008,4.60045,2470.544,2022-8-09T13:58:53Z
2022-08-09T12:00:07Z,42.805,6.029,13.3008,4.60046,2470.53,2022-8-09T14:01:56Z
2022-08-09T12:03:10Z,42.805,6.029,13.3006,4.60044,2470.567,2022-8-09T14:04:59Z
2022-08-09T12:06:14Z,42.805,6.029,13.3006,4.60047,2470.553,2022-8-09T14:08:02Z
2022-08-09T12:09:17Z,42.805,6.029,13.3009,4.60048,2470.553,2022-8-09T14:11:05Z
2022-08-09T12:12:20Z,42.805,6.029,13.3005,4.60043,2470.567,2022-8-09T14:14:09Z
2022-08-09T12:15:23Z,42.805,6.029,13.3006,4.60045,2470.53,2022-8-09T14:17:12Z
2022-08-09T12:18:26Z,42.805,6.029,13.3008,4.60044,2470.577,2022-8-09T14:20:15Z
2022-08-09T12:21:29Z,42.805,6.029,13.3010,4.60045,2470.53,2022-8-09T14:23:18Z
2022-08-09T12:24:32Z,42.805,6.029,13.3004,4.60045,2470.567,2022-8-09T14:26:21Z
2022-08-09T12:27:35Z,42.805,6.029,13.3006,4.60043,2470.567,2022-8-09T14:29:24Z
2022-08-09T12:30:39Z,42.805,6.029,13.3009,4.60044,2470.567,2022-8-09T14:32:27Z
2022-08-09T12:33:42Z,42.805,6.029,13.3009,4.60043,2470.553,2022-8-09T14:35:30Z
2022-08-09T12:36:45Z,42.805,6.029,13.3007,4.60044,2470.591,2022-8-09T14:38:34Z
2022-08-09T12:39:48Z,42.805,6.029,13.3008,4.60042,2470.591,2022-8-09T14:41:37Z
2022-08-09T12:42:51Z,42.805,6.029,13.3011,4.60042,2470.553,2022-8-09T14:44:40Z
2022-08-09T12:45:54Z,42.805,6.029,13.3005,4.60042,2470.567,2022-8-09T14:47:43Z
2022-08-09T12:48:57Z,42.805,6.029,13.3006,4.60042,2470.591,2022-8-09T14:50:46Z
2022-08-09T12:52:00Z,42.805,6.029,13.3007,4.60044,2470.553,2022-8-09T14:53:49Z
2022-08-09T12:55:03Z,42.805,6.029,13.3009,4.60044,2470.53,2022-8-09T14:56:52Z
2022-08-09T12:58:07Z,42.805,6.029,13.3009,4.60042,2470.553,2022-8-09T14:59:55Z
2022-08-09T13:01:10Z,42.805,6.029,13.3006,4.60042,2470.6,2022-8-09T15:02:58Z
2022-08-09T13:04:13Z,42.805,6.029,13.3006,4.60044,2470.577,2022-8-09T15:06:02Z
2022-08-09T13:07:16Z,42.805,6.029,13.3010,4.60044,2470.553,2022-8-09T15:09:05Z
2022-08-09T13:10:19Z,42.805,6.029,13.3005,4.60044,2470.591,2022-8-09T15:12:08Z
2022-08-09T13:13:22Z,42.805,6.029,13.3007,4.60044,2470.591,2022-8-09T15:15:11Z
2022-08-09T13:16:25Z,42.805,6.029,13.3006,4.60045,2470.6,2022-8-09T15:18:14Z
2022-08-09T13:19:28Z,42.805,6.029,13.3006,4.60045,2470.6,2022-8-09T15:21:17Z
2022-08-09T13:22:32Z,42.805,6.029,13.3009,4.60044,2470.6,2022-8-09T15:24:20Z
2022-08-09T13:25:35Z,42.805,6.029,13.3004,4.60048,2470.6,2022-8-09T15:27:23Z
2022-08-09T13:28:38Z,42.805,6.029,13.3006,4.60044,2470.577,2022-8-09T15:30:27Z
2022-08-09T13:31:41Z,42.805,6.029,13.3009,4.60044,2470.6,2022-8-09T15:33:30Z
2022-08-09T13:34:44Z,42.805,6.029,13.3006,4.60044,2470.577,2022-8-09T15:36:33Z
2022-08-09T13:37:47Z,42.805,6.029,13.3003,4.60046,2470.6,2022-8-09T15:39:36Z
2022-08-09T13:40:50Z,42.805,6.029,13.3004,4.60047,2470.614,2022-8-09T15:42:39Z
2022-08-09T13:43:53Z,42.805,6.029,13.3007,4.60044,2470.624,2022-8-09T15:45:42Z
2022-08-09T13:46:57Z,42.805,6.029,13.3004,4.60046,2470.6,2022-8-09T15:48:45Z
2022-08-09T13:50:00Z,42.805,6.029,13.3009,4.60044,2470.6,2022-8-09T15:51:48Z
2022-08-09T13:53:03Z,42.805,6.029,13.3007,4.60048,2470.577,2022-8-09T15:54:52Z
2022-08-09T13:56:06Z,42.805,6.029,13.3006,4.60049,2470.6,2022-8-09T15:57:55Z
2022-08-09T13:59:09Z,42.805,6.029,13.3011,4.60044,2470.637,2022-8-09T16:00:58Z
2022-08-09T14:02:12Z,42.805,6.029,13.3009,4.60044,2470.624,2022-8-09T16:04:01Z
2022-08-09T14:05:15Z,42.805,6.029,13.3005,4.60044,2470.6,2022-8-09T16:07:04Z
2022-08-09T14:08:18Z,42.805,6.029,13.3007,4.60042,2470.624,2022-8-09T16:10:07Z
2022-08-09T14:11:21Z,42.805,6.029,13.3006,4.60044,2470.646,2022-8-09T16:13:10Z
2022-08-09T14:14:25Z,42.805,6.029,13.3008,4.60042,2470.637,2022-8-09T16:16:13Z
2022-08-09T14:17:28Z,42.805,6.029,13.3004,4.60046,2470.646,2022-8-09T16:19:16Z
2022-08-09T14:20:31Z,42.805,6.029,13.3004,4.60043,2470.624,2022-8-09T16:22:20Z
2022-08-09T14:23:34Z,42.805,6.029,13.3006,4.60042,2470.661,2022-8-09T16:25:23Z
2022-08-09T14:26:37Z,42.805,6.029,13.3007,4.60043,2470.661,2022-8-09T16:28:26Z
2022-08-09T14:29:40Z,42.805,6.029,13.3005,4.60046,2470.646,2022-8-09T16:31:29Z
2022-08-09T14:32:43Z,42.805,6.029,13.3009,4.60045,2470.646,2022-8-09T16:34:32Z
2022-08-09T14:35:46Z,42.805,6.029,13.3005,4.60047,2470.646,2022-8-09T16:37:35Z
2022-08-09T14:38:50Z,42.805,6.029,13.3004,4.60046,2470.67,2022-8-09T16:40:38Z
2022-08-09T14:41:53Z,42.805,6.029,13.3012,4.60046,2470.661,2022-8-09T16:43:41Z
2022-08-09T14:44:56Z,42.805,6.029,13.3009,4.60048,2470.661,2022-8-09T16:46:45Z
2022-08-09T14:47:59Z,42.805,6.029,13.3023,4.60048,2470.707,2022-8-09T16:49:48Z
2022-08-09T14:51:02Z,42.805,6.029,13.3006,4.60045,2470.717,2022-8-09T16:52:51Z
2022-08-09T14:54:05Z,42.805,6.029,13.3005,4.60046,2470.67,2022-8-09T16:55:54Z
2022-08-09T14:57:08Z,42.805,6.029,13.3006,4.60046,2470.67,2022-8-09T16:58:57Z
2022-08-09T15:00:11Z,42.805,6.029,13.3004,4.60044,2470.707,2022-8-09T17:02:00Z
2022-08-09T15:03:15Z,42.805,6.029,13.3008,4.60044,2470.693,2022-8-09T17:05:03Z
2022-08-09T15:06:18Z,42.805,6.029,13.3003,4.60046,2470.684,2022-8-09T17:08:06Z
2022-08-09T15:09:21Z,42.805,6.029,13.3006,4.60044,2470.67,2022-8-09T17:11:10Z
2022-08-09T15:12:24Z,42.805,6.029,13.3011,4.60056,2470.684,2022-8-09T17:14:13Z
2022-08-09T15:15:27Z,42.805,6.029,13.3004,4.60046,2470.67,2022-8-09T17:17:16Z